| Date | Time | Temp. (oF) | Dew Point (oF) | Rel. Hum. (%) | Press. (in.) | Wind Dir. | Wind Speed (mph) | Hourly Rainfall (in.) |
|
|---|---|---|---|---|---|---|---|---|---|
| 1 | 03/05 | 00:00 | 61 | 60 | 98 | 29.49 | ESE | 6 | 0.00 |
| 2 | 03/04 | 23:00 | 59 | 58 | 98 | 29.57 | S | 6 | 0.23 |
| 3 | 03/04 | 22:00 | 60 | 57 | 92 | 29.61 | ESE | 7 | 0.05 |
| 4 | 03/04 | 21:00 | 61 | 57 | 87 | 29.65 | SE | 10 | 0.01 |
| 5 | 03/04 | 20:00 | 61 | 57 | 89 | 29.68 | SSE | 7 | 0.02 |
| 6 | 03/04 | 19:00 | 63 | 57 | 81 | 29.72 | SSW | 3 | 0.00 |
| 7 | 03/04 | 18:00 | 64 | 56 | 78 | 29.73 | SSW | 7 | 0.00 |
| 8 | 03/04 | 17:00 | 63 | 56 | 79 | 29.75 | SSW | 9 | 0.00 |
| 9 | 03/04 | 16:00 | 62 | 55 | 80 | 29.76 | SSE | 8 | 0.00 |
| 10 | 03/04 | 15:00 | 62 | 55 | 79 | 29.77 | S | 4 | 0.00 |
| 11 | 03/04 | 14:00 | 61 | 54 | 79 | 29.79 | S | 5 | 0.00 |
| 12 | 03/04 | 13:00 | 59 | 53 | 81 | 29.81 | S | 4 | 0.00 |
| 13 | 03/04 | 12:00 | 58 | 52 | 83 | 29.85 | S | 5 | 0.00 |
| 14 | 03/04 | 11:00 | 58 | 52 | 83 | 29.88 | SSW | 5 | 0.00 |
| 15 | 03/04 | 10:00 | 57 | 52 | 84 | 29.89 | S | 6 | 0.00 |
| 16 | 03/04 | 09:00 | 56 | 51 | 85 | 29.91 | SSW | 9 | 0.00 |
| 17 | 03/04 | 08:00 | 55 | 50 | 86 | 29.91 | SW | 4 | 0.00 |
| 18 | 03/04 | 07:00 | 54 | 50 | 88 | 29.90 | SE | 0 | 0.00 |
| 19 | 03/04 | 06:00 | 53 | 49 | 88 | 29.90 | S | 7 | 0.00 |
| 20 | 03/04 | 05:00 | 54 | 49 | 86 | 29.90 | SSW | 8 | 0.00 |
| 21 | 03/04 | 04:00 | 54 | 49 | 84 | 29.90 | SSW | 7 | 0.00 |
| 22 | 03/04 | 03:00 | 54 | 48 | 83 | 29.90 | SW | 5 | 0.00 |
| 23 | 03/04 | 02:00 | 54 | 48 | 82 | 29.91 | SSW | 5 | 0.00 |
| 24 | 03/04 | 01:00 | 53 | 46 | 80 | 29.90 | SSW | 8 | 0.00 |